Regional Weather Roundup
Issued by NWS

Home | Current Version | Previous Version | Graphics & Text | Print | Product List | Glossary On
Versions: 1 2 3 4 5 6 7 8 9 10 11 12 13 14 15 16 17 18 19 20 21 22 23 24 25 26 27 28 29 30 31 32 33 34 35 36 37 38 39 40 41 42 43 44 45 46 47 48 49 50
000
ASUS45 KCYS 210610
RWRWY

WYOMING REGIONAL WEATHER ROUNDUP
NATIONAL WEATHER SERVICE CHEYENNE WY
1200 AM MDT THU AUG 21 2014

NOTE:  "FAIR" INDICATES FEW OR NO CLOUDS BELOW 12,000 FEET
WITH NO SIGNIFICANT WEATHER AND/OR OBSTRUCTIONS TO VISIBILITY.

WYZ001-210700-
YELLOWSTONE NATIONAL PARK

CITY           SKY/WX    TMP DP  RH WIND       PRES   REMARKS
LK YELLOWSTONE   N/A     41  40  96 CALM      30.20R
6HR MIN TEMP:  41; 6HR MAX TEMP:  52; 6HR PCP:  0.14;

W YELLOWSTONE  NOT AVBL

$$
WYZ002>013-054>058-071-098>099-210700-
NORTHERN WYOMING

CITY           SKY/WX    TMP DP  RH WIND       PRES   REMARKS
JACKSON        CLOUDY    52  50  93 CALM      30.15R
CODY           MOCLDY    57  45  62 NW8       30.00S
GREYBULL       CLOUDY    66  51  58 N13       29.92F
6HR MIN TEMP:  66; 6HR MAX TEMP:  84;

WORLAND        MOCLDY    65  48  54 N10       29.95R
6HR MIN TEMP:  64; 6HR MAX TEMP:  80;

SHERIDAN       MOCLDY    63  49  60 W14G20    29.94R
6HR MIN TEMP:  58; 6HR MAX TEMP:  79;

BUFFALO        CLOUDY    63  47  55 S5        29.98S
6HR MIN TEMP:  61; 6HR MAX TEMP:  75;

GILLETTE       MOCLDY    61  49  64 CALM      29.93R
6HR MIN TEMP:  57; 6HR MAX TEMP:  80;

HULETT         FAIR      61  52  72 MISG      29.93
NEWCASTLE      FAIR      72  45  37 N6        29.90

$$
WYZ014>020-022>026-101>103-210700-
CENTRAL WYOMING

CITY           SKY/WX    TMP DP  RH WIND       PRES   REMARKS
BIG PINEY      LGT RAIN  51  47  86 S7        30.19F
6HR MIN TEMP:  51; 6HR MAX TEMP:  66; 6HR PCP:  0.02;

PINEDALE       CLOUDY    54  43  66 SW5       30.20R
DUBOIS         FAIR      46  43  87 NW7       30.14F
LANDER         MOCLDY    61  43  51 CALM      30.02R
6HR MIN TEMP:  61; 6HR MAX TEMP:  71;

RIVERTON       MOCLDY    62  40  44 NW17      30.02R
6HR MIN TEMP:  61; 6HR MAX TEMP:  76;

CASPER         CLOUDY    64  45  49 SW9       29.99R
6HR MIN TEMP:  64; 6HR MAX TEMP:  78; 6HR PCP: TRACE;

DOUGLAS        CLOUDY    65  48  54 SW3       29.98R
6HR MIN TEMP:  65; 6HR MAX TEMP:  82;


$$
WYZ021-027>030-104>119-210700-
SOUTHERN WYOMING

CITY           SKY/WX    TMP DP  RH WIND       PRES   REMARKS
EVANSTON       RAIN      51  49  92 W9        30.25R FOG
6HR MIN TEMP:  50; 6HR MAX TEMP:  71; 6HR PCP:  0.21;

KEMMERER       LGT RAIN  48  45  87 CALM      30.22S
FORT BRIDGER   MOCLDY    52  49  91 NW15G21   30.25R
ROCK SPRINGS   MOCLDY    53  45  74 N8        30.15F
6HR MIN TEMP:  52; 6HR MAX TEMP:  64; 6HR PCP: TRACE;

DIXON          FAIR      55  51  86 CALM      30.18R
RAWLINS        CLOUDY    56  45  66 SW8       30.12F
6HR MIN TEMP:  56; 6HR MAX TEMP:  62; 6HR PCP: TRACE;

SARATOGA       FAIR      52  50  93 MISG      30.15F
LARAMIE        MOCLDY    56  42  59 SW10      30.14F
6HR MIN TEMP:  54; 6HR MAX TEMP:  69;

CHEYENNE       PTCLDY    63  46  54 W21G28    30.07S
6HR MIN TEMP:  63; 6HR MAX TEMP:  74; 6HR PCP: TRACE;

TORRINGTON     PTCLDY    66  49  54 SW3       29.91R
6HR MIN TEMP:  65; 6HR MAX TEMP:  88;

PINE BLUFFS    MOCLDY    61  54  77 CALM      30.03S

$$


USA.gov is the U.S. government's official web portal to all federal, state and local government web resources and services.